Weather reports worldwide

Advertisment
Tholey, Germany (10706): temperature & dewpoint: 24.05.2020 23:00:00 - 30.05.2020 23:00:00 (CEST)Tholey, Germany (10706): temperature 5cm & temperature -5cm: 24.05.2020 23:00:00 - 30.05.2020 23:00:00 (CEST)Tholey, Germany (10706): temperature -20cm & temperature -100cm: 24.05.2020 23:00:00 - 30.05.2020 23:00:00 (CEST)Tholey, Germany (10706): wind speed & gusts: 24.05.2020 23:00:00 - 30.05.2020 23:00:00 (CEST)Tholey, Germany (10706): wind direction: 24.05.2020 23:00:00 - 30.05.2020 23:00:00 (CEST)Tholey, Germany (10706): reduced air pressure: 24.05.2020 23:00:00 - 30.05.2020 23:00:00 (CEST)Tholey, Germany (10706): visibility: 24.05.2020 23:00:00 - 30.05.2020 23:00:00 (CEST)Tholey, Germany (10706): sunshine duration: 24.05.2020 23:00:00 - 30.05.2020 23:00:00 (CEST)Tholey, Germany (10706): precipitation: 24.05.2020 23:00:00 - 30.05.2020 23:00:00 (CEST)
Date & Time tt [°C] td [°C] tt 5cm [°C] tt -5cm [°C] tt -20cm [°C] tt -100cm [°C] ff [km/h] ff [kn] fx [km/h] fx [kn] dd ppp [hPa] vv [km] sd [min] rr [mm]
30.05.2020 23:00:00 14,1 1,2 12,3 16,8 20,0 14,4 18 10 28 15 ENE 1021,1 72 0 0,0
30.05.2020 22:00:00 14,8 0,7 12,9 18,2 20,3 14,4 14 8 28 15 ENE 1020,7 69 0 0,0
30.05.2020 21:00:00 16,0 0,0 14,5 20,0 20,5 14,4 17 9 37 20 E 1020,1 75 60 0,0
30.05.2020 20:00:00 17,1 0,1 17,4 22,2 20,5 14,4 24 13 47 26 ENE 1019,7 75 60 0,0
30.05.2020 19:00:00 18,1 0,9 19,4 24,9 20,3 14,3 25 14 45 24 ENE 1019,3 69 60 0,0
30.05.2020 18:00:00 19,4 3,5 22,9 26,8 20,0 14,3 23 12 46 25 ENE 1019,4 60 60 0,0
30.05.2020 17:00:00 18,9 2,6 22,5 27,9 19,6 14,3 23 13 42 23 ENE 1019,8 67 59 0,0
30.05.2020 16:00:00 19,8 3,6 25,3 28,9 19,0 14,3 18 10 46 25 ENE 1020,0 55 60 0,0
30.05.2020 15:00:00 18,9 -0,1 24,4 28,6 18,5 14,3 22 12 44 24 E 1020,4 57 59 0,0
30.05.2020 14:00:00 18,8 2,2 24,5 27,7 17,9 14,3 22 12 40 22 ENE 1020,8 51 55 0,0
30.05.2020 13:00:00 17,5 4,1 22,3 25,6 17,5 14,3 21 11 44 24 ENE 1021,5 62 51 0,0
30.05.2020 12:00:00 17,2 4,0 21,6 23,9 17,1 14,3 21 11 40 21 E 1022,0 75 58 0,0
30.05.2020 11:00:00 16,8 3,7 21,0 21,7 16,8 14,3 23 12 40 22 E 1022,3 51 60 0,0
30.05.2020 10:00:00 15,9 3,7 19,6 19,2 16,7 14,3 18 10 33 18 E 1022,5 39 60 0,0
30.05.2020 09:00:00 14,4 4,0 17,2 16,4 16,8 14,3 17 9 26 14 ENE 1022,8 75 60 0,0
30.05.2020 08:00:00 12,1 3,2 13,8 13,8 17,0 14,3 20 11 28 15 NE 1022,9 75 60 0,0
30.05.2020 07:00:00 11,0 2,5 11,1 12,4 17,3 14,3 21 11 29 15 NE 1023,0 67 60 0,0
30.05.2020 06:00:00 10,2 2,4 8,3 12,3 17,7 14,2 18 10 28 15 NNE 1023,0 58 1 0,0
30.05.2020 05:00:00 10,7 2,4 8,8 12,8 18,0 14,2 19 11 27 14 NE 1022,8 69 0 0,0
30.05.2020 04:00:00 11,4 2,5 9,3 13,3 18,3 14,2 19 11 29 15 NE 1022,9 68 0 0,0
30.05.2020 03:00:00 12,0 2,5 10,1 13,9 18,7 14,2 22 12 30 16 NE 1022,9 74 0 0,0
30.05.2020 02:00:00 12,7 2,4 10,8 14,6 19,1 14,2 19 11 26 14 NE 1022,8 75 0 0,0
30.05.2020 01:00:00 13,2 2,0 11,0 15,3 19,4 14,2 17 9 24 13 NE 1022,8 75 0 0,0
30.05.2020 00:00:00 13,9 2,3 11,7 16,2 19,8 14,2 16 9 24 13 NE 1022,7 71 0 0,0
29.05.2020 23:00:00 15,1 2,7 12,9 17,2 20,1 14,2 16 9 22 12 NE 1022,6 71 0 0,0
29.05.2020 22:00:00 15,6 2,7 13,3 18,6 20,4 14,2 14 8 24 13 ENE 1022,4 75 0 0,0
29.05.2020 21:00:00 16,9 2,5 14,9 20,4 20,6 14,2 14 7 31 17 ENE 1022,1 65 59 0,0
29.05.2020 20:00:00 17,6 2,8 18,1 22,6 20,6 14,2 14 7 32 17 E 1022,2 65 60 0,0
29.05.2020 19:00:00 18,3 2,3 19,5 24,9 20,4 14,2 19 10 41 22 ENE 1022,5 59 60 0,0
29.05.2020 18:00:00 19,1 3,0 22,0 26,8 20,1 14,1 18 10 38 20 E 1022,6 52 58 0,0
29.05.2020 17:00:00 19,1 2,5 23,2 28,2 19,7 14,1 22 12 38 20 E 1022,9 57 58 0,0
29.05.2020 16:00:00 19,2 3,4 24,6 28,6 19,2 14,1 19 10 44 24 E 1023,5 75 57 0,0
29.05.2020 15:00:00 18,0 3,5 22,3 28,3 18,6 14,1 17 9 35 19 E 1024,4 70 46 0,0
29.05.2020 14:00:00 18,5 4,0 24,5 28,2 18,1 14,1 21 12 36 20 E 1024,8 75 59 0,0
29.05.2020 13:00:00 17,9 4,8 23,4 26,2 17,6 14,1 18 10 34 18 E 1025,5 52 49 0,0
29.05.2020 12:00:00 17,1 4,4 22,5 24,5 17,2 14,1 21 11 40 22 E 1026,1 71 60 0,0
29.05.2020 11:00:00 16,8 4,4 20,9 21,8 16,9 14,1 26 14 39 21 E 1026,4 70 60 0,0
29.05.2020 10:00:00 15,4 3,9 19,1 19,2 16,8 14,1 18 10 29 16 E 1026,8 68 59 0,0
29.05.2020 09:00:00 14,0 4,0 17,4 16,4 16,9 14,1 13 7 25 14 NE 1027,3 66 60 0,0
29.05.2020 08:00:00 12,3 3,3 13,8 13,8 17,1 14,0 11 6 22 12 ENE 1027,6 64 60 0,0
29.05.2020 07:00:00 10,7 2,6 10,6 12,1 17,5 14,0 11 6 18 10 ENE 1027,9 47 60 0,0
29.05.2020 06:00:00 9,5 2,1 7,3 12,0 17,8 14,0 11 6 22 12 ENE 1027,9 75 3 0,0
29.05.2020 05:00:00 10,3 1,8 8,1 12,6 18,2 14,0 18 10 25 13 NE 1027,7 70 0 0,0
29.05.2020 04:00:00 11,0 1,8 9,2 13,2 18,6 14,0 16 9 29 16 ENE 1027,8 55 0 0,0
29.05.2020 03:00:00 11,4 1,8 9,5 13,8 19,0 14,0 19 10 27 15 NE 1028,0 65 0 0,0
29.05.2020 02:00:00 12,2 1,5 10,4 14,5 19,4 14,0 20 11 29 15 NE 1028,0 67 0 0,0
29.05.2020 01:00:00 12,9 0,8 11,0 15,3 19,8 14,0 21 11 31 17 NE 1028,1 69 0 0,0
29.05.2020 00:00:00 13,6 -0,1 11,5 16,3 20,3 14,0 18 10 28 15 NE 1028,1 71 0 0,0
28.05.2020 23:00:00 15,0 -0,2 12,7 17,5 20,6 14,0 18 10 27 14 ENE 1027,8 74 0 0,0
28.05.2020 22:00:00 15,8 -0,3 13,0 18,9 21,0 14,0 16 8 24 13 NE 1027,4 74 0 0,0
28.05.2020 21:00:00 16,9 -0,6 14,3 21,0 21,1 14,0 12 6 28 15 ENE 1027,0 75 58 0,0
28.05.2020 20:00:00 18,3 0,3 18,5 23,5 21,1 14,0 16 8 26 14 E 1026,7 75 60 0,0
28.05.2020 19:00:00 19,0 -0,5 20,7 26,0 21,0 13,9 18 10 30 16 E 1026,9 60 60 0,0
28.05.2020 18:00:00 19,6 0,9 22,5 28,1 20,7 13,9 17 9 33 18 E 1027,3 71 60 0,0
28.05.2020 17:00:00 19,6 0,8 24,3 29,6 20,2 13,9 17 9 35 19 ENE 1027,4 75 60 0,0
28.05.2020 16:00:00 20,0 3,1 26,0 30,3 19,7 13,9 21 11 36 19 NE 1027,8 75 60 0,0
28.05.2020 15:00:00 19,7 4,0 25,9 29,8 19,1 13,9 15 8 38 20 NE 1028,4 55 60 0,0
28.05.2020 14:00:00 18,7 4,5 25,6 29,1 18,6 13,9 15 8 34 19 E 1028,8 60 59 0,0
28.05.2020 13:00:00 19,1 6,4 25,0 27,6 18,1 13,9 16 9 34 18 ENE 1029,1 75 60 0,0
28.05.2020 12:00:00 17,5 6,5 22,5 25,3 17,8 13,9 17 9 37 20 ENE 1029,5 61 60 0,0
28.05.2020 11:00:00 16,8 7,5 21,9 22,7 17,6 13,9 22 12 42 23 NE 1029,8 58 60 0,0
28.05.2020 10:00:00 15,5 7,6 19,0 20,1 17,5 13,9 20 11 37 20 ENE 1030,0 75 60 0,0
28.05.2020 09:00:00 14,4 8,3 17,0 17,8 17,6 13,9 25 13 39 21 ENE 1030,1 75 60 0,0
28.05.2020 08:00:00 14,1 9,0 15,3 16,1 17,8 13,9 21 12 35 19 NE 1029,9 51 28 0,0
28.05.2020 07:00:00 13,9 8,9 13,8 15,6 18,0 13,9 16 9 32 18 ENE 1029,8 41 3 0,0
28.05.2020 06:00:00 14,1 8,4 13,5 15,6 18,2 13,9 19 10 32 17 NE 1029,6 38 0 0,0
28.05.2020 05:00:00 14,7 8,1 14,1 15,8 18,5 13,9 16 9 27 15 NE 1029,5 46 0 0,0
28.05.2020 04:00:00 14,9 8,2 14,0 15,9 18,8 13,9 13 7 23 12 NE 1029,5 45 0 0,0
28.05.2020 03:00:00 15,3 7,9 13,1 16,1 19,1 13,9 12 6 23 12 NNE 1029,6 43 0 0,0
28.05.2020 02:00:00 16,3 7,8 13,9 16,8 19,4 13,9 14 7 22 12 NNE 1030,1 42 0 0,0
28.05.2020 01:00:00 16,8 7,2 14,8 17,5 19,8 13,8 14 8 20 11 NNE 1030,2 55 0 0,0
28.05.2020 00:00:00 17,2 6,3 14,7 17,9 20,1 13,8 14 8 21 11 NNE 1030,4 61 0 0,0
27.05.2020 23:00:00 18,1 5,7 13,9 19,0 20,4 13,8 8 4 9 5 NNE 1030,4 75 0 0,0
27.05.2020 22:00:00 18,7 5,2 13,4 20,6 20,6 13,8 5 3 9 5 ENE 1029,9 65 0 0,0
27.05.2020 21:00:00 19,0 5,7 17,1 22,5 20,7 13,8 7 4 14 7 E 1029,6 73 31 0,0
27.05.2020 20:00:00 19,4 6,6 20,4 24,9 20,6 13,8 10 6 16 8 ESE 1029,4 67 60 0,0
27.05.2020 19:00:00 21,0 5,2 23,6 27,4 20,3 13,8 6 3 18 10 SE 1029,5 75 60 0,0
27.05.2020 18:00:00 21,3 5,2 25,4 29,3 19,8 13,8 9 5 21 11 ESE 1029,7 75 60 0,0
27.05.2020 17:00:00 20,6 3,9 25,9 30,5 19,2 13,8 10 5 28 15 E 1030,3 56 60 0,0
27.05.2020 16:00:00 21,0 4,6 26,5 30,8 18,6 13,8 10 6 27 14 ESE 1030,7 75 60 0,0
27.05.2020 15:00:00 20,2 4,7 26,6 30,4 17,9 13,8 15 8 27 15 E 1031,3 75 60 0,0
27.05.2020 14:00:00 19,2 3,9 25,5 29,2 17,2 13,8 16 9 24 13 ESE 1032,0 75 60 0,0
27.05.2020 13:00:00 18,8 5,3 25,2 27,1 16,7 13,8 14 8 28 15 ESE 1032,5 68 60 0,0
27.05.2020 12:00:00 18,5 5,2 24,2 25,0 16,2 13,8 15 8 26 14 E 1032,8 61 60 0,0
27.05.2020 11:00:00 17,6 4,8 23,0 22,4 15,8 13,8 11 6 23 13 E 1033,4 75 60 0,0
27.05.2020 10:00:00 16,3 6,2 20,6 19,2 15,7 13,8 12 6 22 12 E 1033,6 75 60 0,0
27.05.2020 09:00:00 15,0 6,1 17,8 16,1 15,7 13,8 10 5 16 9 ENE 1033,7 65 60 0,0
27.05.2020 08:00:00 13,6 5,8 14,8 13,4 15,9 13,8 9 5 14 8 ENE 1033,8 70 60 0,0
27.05.2020 07:00:00 11,9 5,3 11,4 11,7 16,2 13,8 9 5 15 8 NE 1034,0 71 60 0,0
27.05.2020 06:00:00 10,8 4,8 8,0 11,4 16,6 13,8 11 6 16 9 NE 1034,1 64 4 0,0
27.05.2020 05:00:00 10,2 5,1 6,4 11,8 16,9 13,8 9 5 12 6 ENE 1034,1 57 0 0,0
27.05.2020 04:00:00 10,5 5,1 6,7 12,5 17,2 13,8 8 4 15 8 ENE 1034,2 61 0 0,0
27.05.2020 03:00:00 12,9 5,0 9,6 13,2 17,6 13,8 13 7 19 10 NE 1033,9 61 0 0,0
27.05.2020 02:00:00 12,5 5,3 9,7 13,8 18,0 13,8 13 7 16 9 NE 1034,3 57 0 0,0
27.05.2020 01:00:00 12,8 5,4 9,9 14,6 18,3 13,8 10 5 18 10 ENE 1034,3 60 0 0,0
27.05.2020 00:00:00 13,4 5,8 10,7 15,5 18,7 13,8 12 6 16 9 ENE 1034,4 66 0 0,0
26.05.2020 23:00:00 14,1 6,1 11,8 16,6 19,0 13,8 12 6 18 10 ENE 1034,2 67 0 0,0
26.05.2020 22:00:00 15,2 6,3 12,9 18,0 19,2 13,8 11 6 18 10 ENE 1033,7 68 0 0,0
26.05.2020 21:00:00 16,2 6,2 14,6 19,9 19,3 13,8 13 7 27 15 E 1033,2 64 56 0,0
26.05.2020 20:00:00 17,5 6,2 17,8 22,2 19,3 13,8 19 11 30 16 E 1032,7 75 60 0,0
26.05.2020 19:00:00 18,5 6,5 20,0 24,7 19,1 13,8 19 11 32 17 E 1032,3 75 60 0,0
26.05.2020 18:00:00 19,6 4,5 22,7 26,8 18,7 13,8 16 9 34 19 ENE 1032,1 61 60 0,0
26.05.2020 17:00:00 19,7 3,6 24,8 28,1 18,1 13,8 16 8 33 18 ENE 1032,3 56 60 0,0
26.05.2020 16:00:00 19,3 3,2 24,1 28,8 17,5 13,8 17 9 32 17 E 1032,5 48 60 0,0
26.05.2020 15:00:00 18,9 3,1 25,1 28,4 16,9 13,8 16 8 34 18 ENE 1032,8 65 60 0,0
26.05.2020 14:00:00 18,6 2,4 24,7 27,4 16,3 13,8 16 8 30 16 ENE 1032,9 75 60 0,0
26.05.2020 13:00:00 17,6 4,3 24,3 25,2 15,7 13,8 17 9 31 17 E 1033,6 51 60 0,0
26.05.2020 12:00:00 17,0 6,3 21,1 22,8 15,3 13,8 13 7 25 14 E 1033,8 60 60 0,0
26.05.2020 11:00:00 16,0 6,1 21,1 21,0 15,0 13,8 14 8 26 14 E 1033,9 47 60 0,0
26.05.2020 10:00:00 14,2 6,3 18,2 17,8 14,8 13,8 14 8 27 15 ENE 1034,2 56 60 0,0
26.05.2020 09:00:00 14,1 7,1 16,8 15,0 14,8 13,8 11 6 19 10 ENE 1034,1 38 60 0,0
26.05.2020 08:00:00 12,3 6,6 14,0 12,5 15,0 13,8 13 7 18 10 NE 1034,1 55 60 0,0
26.05.2020 07:00:00 11,3 6,3 11,1 10,9 15,3 13,8 11 6 22 12 NE 1034,3 47 60 0,0
26.05.2020 06:00:00 10,6 6,1 8,2 10,6 15,6 13,8 14 8 20 11 NNE 1034,1 56 0 0,0
26.05.2020 05:00:00 9,2 6,2 6,5 11,1 15,9 13,9 10 5 23 12 NE 1034,2 51 0 0,0
26.05.2020 04:00:00 11,5 6,5 8,9 11,7 16,2 13,9 16 9 22 12 NNE 1033,8 46 0 0,0
26.05.2020 03:00:00 11,9 6,9 9,0 12,2 16,5 13,9 15 8 21 12 NNE 1033,8 52 0 0,0
26.05.2020 02:00:00 12,1 7,2 9,4 12,8 16,8 13,9 15 8 21 11 NNE 1033,8 63 0 0,0
26.05.2020 01:00:00 12,6 7,5 9,6 13,5 17,1 13,9 13 7 17 9 NNE 1034,0 54 0 0,0
26.05.2020 00:00:00 13,1 7,6 10,2 14,4 17,4 13,9 10 6 16 9 NNE 1033,9 75 0 0,0
25.05.2020 23:00:00 14,4 7,9 11,3 15,5 17,6 13,9 11 6 17 9 NNE 1033,5 65 0 0,0
25.05.2020 22:00:00 15,2 8,0 11,6 16,8 17,7 13,9 8 4 15 8 N 1033,0 63 0 0,0
25.05.2020 21:00:00 16,2 7,8 14,0 18,7 17,7 13,9 9 5 23 12 N 1032,3 71 42 0,0
25.05.2020 20:00:00 17,5 7,3 18,6 21,3 17,5 13,9 14 8 27 15 N 1032,0 73 51 0,0
25.05.2020 19:00:00 17,7 6,8 20,0 22,9 17,2 13,9 11 6 29 15 N 1031,9 75 50 0,0
25.05.2020 18:00:00 18,1 7,2 21,8 23,3 16,8 13,9 13 7 26 14 N 1031,8 65 48 0,0
25.05.2020 17:00:00 18,3 7,5 24,2 24,4 16,4 13,9 10 6 27 15 N 1031,9 75 35 0,0
25.05.2020 16:00:00 17,4 7,2 20,9 23,8 16,0 13,9 15 8 27 15 N 1032,4 72 40 0,0
25.05.2020 15:00:00 16,6 8,1 20,2 21,9 15,6 13,9 12 7 27 14 N 1032,9 75 5 0,0
25.05.2020 14:00:00 16,6 7,9 21,0 21,4 15,2 13,9 12 6 20 11 N 1033,0 53 10 0,0
25.05.2020 13:00:00 15,6 7,6 18,6 19,4 14,9 13,9 15 8 27 14 N 1033,3 73 1 0,0
25.05.2020 12:00:00 16,0 8,7 19,8 18,6 14,7 13,9 11 6 25 14 N 1033,1 58 1 0,0
25.05.2020 11:00:00 15,0 8,5 17,4 16,7 14,5 13,9 11 6 22 12 N 1033,2 60 10 0,0
25.05.2020 10:00:00 13,6 9,2 15,6 14,7 14,5 13,9 10 6 26 14 N 1033,5 53 0 0,0
25.05.2020 09:00:00 12,2 8,9 13,3 13,3 14,5 13,9 7 4 19 10 NNW 1033,6 35 0 0,0
25.05.2020 08:00:00 10,4 8,8 10,8 12,1 14,7 13,9 3 2 9 5 WNW 1033,6 29 0 0,0
25.05.2020 07:00:00 9,1 7,9 8,7 11,0 14,9 13,9 5 3 8 5 W 1033,4 25 0 0,0
25.05.2020 06:00:00 8,8 7,4 7,0 10,6 15,1 13,9 8 5 17 9 WNW 1033,4 22 0 0,0
25.05.2020 05:00:00 11,3 8,1 9,1 11,1 15,4 13,9 12 6 24 13 NW 1032,7 40 0 0,0
25.05.2020 04:00:00 11,8 8,2 8,9 11,4 15,6 13,9 10 5 21 12 NNW 1032,6 37 0 0,0
25.05.2020 03:00:00 9,8 7,8 6,7 11,8 15,9 13,9 5 3 19 10 W 1032,6 35 0 0,0
25.05.2020 02:00:00 11,7 7,8 9,8 12,6 16,1 13,9 11 6 19 10 WNW 1032,4 42 0 0,0
25.05.2020 01:00:00 12,3 7,9 10,6 13,0 16,3 13,9 13 7 20 11 WNW 1032,6 42 0 0,0
25.05.2020 00:00:00 13,1 8,0 11,5 13,9 16,5 13,9 10 5 24 13 WNW 1032,4 42 0 0,0
24.05.2020 23:00:00 13,6 7,9 12,5 14,5 16,7 13,9 15 8 29 16 WNW 1032,2 54 0 0,0

tt = temperature
td = dewpoint
tt 5cm = temperature 5cm
tt -5cm = temperature -5cm
tt -20cm = temperature -20cm
tt -100cm = temperature -100cm
ff = wind speed
fx = gusts
dd = wind direction
ppp = reduced air pressure
vv = visibility
sd = sunshine duration
rr = precipitation

Next stations